Location: Andershausen
(51.8462°N, 9.8595°E)
Time: 09:09:05
(UTC+00:00)

Cosmos 1908 Rocket - Pass Details

Date: 18 November 2025
Orbit: 599 x 625 km, 82.5° (Epoch: 11 December)

Event Time Altitude Azimuth Distance (km) Brightness Sun altitude
Rises 16:01:27 0° 190° (S) 2,894 7.5 -5.7°
Reaches altitude 10° 16:03:40 10° 190° (S) 1,994 6.7 -6.0°
Maximum altitude 16:08:06 87° 278° (W) 635 3.7 -6.7°
Drops below altitude 10° 16:12:35 10° 10° (N) 2,013 5.9 -7.3°
Sets 16:14:50 0° 11° (N) 2,924 6.7 -7.6°
